NORTHERN QUEENS  -  Air Quality Alert Air Quality Alert        SOUTHERN QUEENS  -  Air Quality Alert Air Quality Alert      

Active alerts

Northern Queens
  Details for Northern Queens Air Quality Alert
Southern Queens
  Details for Southern Queens Air Quality Alert


WXM80 ListenWXM80 Stop

You find our weather info also at:

UK Metoffice

WeatherCloud

Weather Underground

Northeastern Weather Network

AWEKAS

Citizen Weather Observer Program (CWOP)

HAMweather, WeatherForYou, PWS Weather


Weather Underground History page Text

Daily Summary for July 9, 2017 Units:  Metric    English   Both
« Previous Day
Next Day »
Daily Weekly Monthly Yearly Custom
  High: Low: Average:
Temperature: 31 °C 19.1 °C 24.6 °C
Dew Point: 18.9 °C 13.3 °C 16.1 °C
Humidity: 87 % 34 % 62 %
Wind Speed: 7.9 km/h 0 km/h 2.3 km/h
Wind Gust: 19.3 km/h - -
Wind:- - WSW
Pressure: 1016.1 hPa 1009.4 hPa -
Precipitation: 0 mm    
Historical Graphs
 
 
Tabular Data for July 9, 2017
Time Temperature Dew Point Pressure Wind Wind Speed Wind Gust Humidity Rainfall Rate (Hourly)
00:02 21.8 °C 18.8 °C 1009.4 hPa WSW 0.2 km/h 3.7 km/h 83 % 0 mm
00:07 21.7 °C 18.7 °C 1009.4 hPa Calm     83 % 0 mm
00:12 21.7 °C 18.7 °C 1009.4 hPa Calm     83 % 0 mm
00:17 21.6 °C 18.6 °C 1009.4 hPa WSW 0.3 km/h 1.9 km/h 83 % 0 mm
00:22 21.6 °C 18.6 °C 1009.7 hPa Calm     83 % 0 mm
00:27 21.5 °C 18.7 °C 1009.7 hPa WSW 0.5 km/h 1.9 km/h 84 % 0 mm
00:32 21.4 °C 18.8 °C 1009.4 hPa Calm   1.9 km/h 85 % 0 mm
00:37 21.4 °C 18.8 °C 1009.7 hPa WSW 1.6 km/h 4.8 km/h 85 % 0 mm
00:42 21.3 °C 18.9 °C 1009.4 hPa WSW 0.3 km/h 5.6 km/h 86 % 0 mm
00:43 21.3 °C 18.8 °C 1009.7 hPa WSW 0.2 km/h 3.2 km/h 86 % 0 mm
00:48 21.3 °C 18.8 °C 1009.7 hPa Calm   1.9 km/h 86 % 0 mm
00:53 21.2 °C 18.8 °C 1009.7 hPa WSW 2.3 km/h 5.6 km/h 86 % 0 mm
00:58 21.2 °C 18.8 °C 1009.7 hPa Calm   1.9 km/h 86 % 0 mm
01:03 21.2 °C 18.9 °C 1009.7 hPa WSW 1.6 km/h 3.7 km/h 87 % 0 mm
01:08 21.2 °C 18.9 °C 1009.7 hPa Calm   1.6 km/h 87 % 0 mm
01:13 21.1 °C 18.7 °C 1010 hPa WSW 1.4 km/h 5.6 km/h 86 % 0 mm
01:18 21.1 °C 18.7 °C 1009.7 hPa Calm     86 % 0 mm
01:23 21.1 °C 18.6 °C 1010 hPa Calm   3.7 km/h 86 % 0 mm
01:28 21.1 °C 18.6 °C 1009.7 hPa WSW 3.2 km/h 5.6 km/h 86 % 0 mm
01:33 21 °C 18.8 °C 1009.7 hPa WSW 0.6 km/h 1.9 km/h 87 % 0 mm
01:38 20.9 °C 18.7 °C 1009.7 hPa WSW 2.4 km/h 3.7 km/h 87 % 0 mm
01:43 20.9 °C 18.7 °C 1010 hPa West 1.6 km/h 5.6 km/h 87 % 0 mm
01:48 20.8 °C 18.3 °C 1010 hPa SSW 1.3 km/h 3.7 km/h 86 % 0 mm
01:53 20.8 °C 18.2 °C 1010 hPa West 0.5 km/h 3.7 km/h 85 % 0 mm
01:58 20.7 °C 17.9 °C 1010 hPa SW 2.3 km/h 8 km/h 84 % 0 mm
02:03 20.7 °C 17.9 °C 1010 hPa West 4.7 km/h 8 km/h 84 % 0 mm
02:08 20.7 °C 17.7 °C 1010.4 hPa West 2.4 km/h 8 km/h 83 % 0 mm
02:13 20.7 °C 17.6 °C 1010.4 hPa WSW 1.1 km/h 5.6 km/h 82 % 0 mm
02:18 20.8 °C 17.6 °C 1010.4 hPa SW 0.6 km/h 5.6 km/h 82 % 0 mm
02:23 20.8 °C 17.4 °C 1010.4 hPa WSW 3.2 km/h 9.3 km/h 81 % 0 mm
02:28 20.8 °C 17.3 °C 1010.4 hPa West 3.1 km/h 9.3 km/h 80 % 0 mm
02:34 20.8 °C 17.1 °C 1010.4 hPa WNW 2.6 km/h 5.6 km/h 79 % 0 mm
02:39 20.8 °C 16.8 °C 1010.4 hPa WNW 3.9 km/h 7.4 km/h 78 % 0 mm
02:44 20.8 °C 16.7 °C 1010.4 hPa WNW 1.9 km/h 7.4 km/h 77 % 0 mm
02:49 20.9 °C 16.5 °C 1010.4 hPa WSW 1.9 km/h 3.7 km/h 76 % 0 mm
02:54 20.9 °C 16.5 °C 1010 hPa WSW 3.4 km/h 7.4 km/h 76 % 0 mm
02:59 20.9 °C 16.8 °C 1010 hPa West 1.4 km/h 5.6 km/h 77 % 0 mm
03:04 20.9 °C 16.6 °C 1010 hPa WNW 0.6 km/h 6.4 km/h 76 % 0 mm
03:09 20.9 °C 16.3 °C 1010 hPa SW 3.2 km/h 7.4 km/h 75 % 0 mm
03:14 20.9 °C 16.1 °C 1010 hPa WNW 1.4 km/h 7.4 km/h 74 % 0 mm
03:19 20.9 °C 16.1 °C 1010 hPa WNW 0.8 km/h 9.3 km/h 74 % 0 mm
03:24 20.9 °C 16.1 °C 1010 hPa West 6.3 km/h 7.4 km/h 74 % 0 mm
03:29 20.9 °C 16.3 °C 1010 hPa West 1.6 km/h 9.3 km/h 75 % 0 mm
03:34 20.9 °C 16.3 °C 1010 hPa WNW 1 km/h 5.6 km/h 75 % 0 mm
03:39 20.8 °C 16.2 °C 1010.4 hPa WNW 7.7 km/h 11.1 km/h 75 % 0 mm
03:44 20.8 °C 16.2 °C 1010.4 hPa WNW 4.5 km/h 6.4 km/h 75 % 0 mm
03:49 20.8 °C 16.4 °C 1010.4 hPa WNW 5.3 km/h 11.1 km/h 76 % 0 mm
03:54 20.8 °C 16.4 °C 1010.4 hPa WNW 4.8 km/h 11.1 km/h 76 % 0 mm
03:59 20.8 °C 16.2 °C 1010.4 hPa West 2.6 km/h 12.9 km/h 75 % 0 mm
04:04 20.7 °C 16.3 °C 1010.4 hPa West 1.1 km/h 6.4 km/h 76 % 0 mm
04:09 20.7 °C 16.3 °C 1010.4 hPa NW 1.4 km/h 5.6 km/h 76 % 0 mm
04:14 20.7 °C 16.3 °C 1010.7 hPa West 2.3 km/h 11.3 km/h 76 % 0 mm
04:19 20.6 °C 16.2 °C 1010.7 hPa West 3.4 km/h 7.4 km/h 76 % 0 mm
04:24 20.6 °C 15.9 °C 1010.7 hPa SW 6 km/h 11.1 km/h 75 % 0 mm
04:30 20.4 °C 15.4 °C 1010.7 hPa West 3.2 km/h 9.3 km/h 73 % 0 mm
04:35 20.4 °C 15.7 °C 1010.7 hPa WSW 3.4 km/h 11.3 km/h 74 % 0 mm
04:40 20.4 °C 15.8 °C 1011.1 hPa WNW 5 km/h 11.1 km/h 75 % 0 mm
04:45 20.3 °C 15.6 °C 1011.1 hPa WNW 5.8 km/h 13 km/h 74 % 0 mm
04:50 20.2 °C 15.4 °C 1011.1 hPa SSW 7.2 km/h 11.1 km/h 74 % 0 mm
04:55 20.2 °C 15.4 °C 1011.1 hPa WNW 2.4 km/h 16.7 km/h 74 % 0 mm
05:00 20.1 °C 15.3 °C 1011.1 hPa West 7.4 km/h 14.8 km/h 74 % 0 mm
05:05 20 °C 15.2 °C 1011.4 hPa WNW 4.7 km/h 7.4 km/h 74 % 0 mm
05:10 19.9 °C 15.2 °C 1011.4 hPa NW 3.7 km/h 7.4 km/h 74 % 0 mm
05:15 19.8 °C 15.3 °C 1011.4 hPa West 5.5 km/h 11.1 km/h 75 % 0 mm
05:20 19.8 °C 15.5 °C 1011.4 hPa WNW 5 km/h 7.4 km/h 76 % 0 mm
05:25 19.8 °C 15.4 °C 1011.7 hPa WNW 2.1 km/h 5.6 km/h 76 % 0 mm
05:30 19.7 °C 15.3 °C 1011.4 hPa WNW 3.4 km/h 7.4 km/h 76 % 0 mm
05:35 19.6 °C 15.3 °C 1011.7 hPa WNW 0.5 km/h 5.6 km/h 76 % 0 mm
05:40 19.5 °C 15.2 °C 1011.7 hPa WNW 4.2 km/h 7.4 km/h 76 % 0 mm
05:45 19.4 °C 15.1 °C 1011.7 hPa NW 1 km/h 3.7 km/h 76 % 0 mm
05:50 19.4 °C 15.1 °C 1011.7 hPa SSE 0.3 km/h 1.9 km/h 76 % 0 mm
05:55 19.3 °C 15 °C 1012.1 hPa Calm   1.6 km/h 76 % 0 mm
06:00 19.3 °C 14.9 °C 1012.1 hPa SSW 0.8 km/h 3.2 km/h 76 % 0 mm
06:05 19.2 °C 15.1 °C 1012.1 hPa WNW 2.3 km/h 5.6 km/h 77 % 0 mm
06:10 19.2 °C 15.1 °C 1012.1 hPa Calm   1.9 km/h 77 % 0 mm
06:15 19.2 °C 15.1 °C 1012.4 hPa WNW 2.1 km/h 5.6 km/h 77 % 0 mm
06:20 19.1 °C 14.8 °C 1012.4 hPa West 0.8 km/h 3.7 km/h 76 % 0 mm
06:25 19.1 °C 14.7 °C 1012.4 hPa WSW 2.9 km/h 7.4 km/h 76 % 0 mm
06:30 19.1 °C 14.7 °C 1012.4 hPa West 1.8 km/h 3.2 km/h 76 % 0 mm
06:36 19.1 °C 15 °C 1012.4 hPa Calm   4.8 km/h 77 % 0 mm
06:41 19.2 °C 15.1 °C 1012.8 hPa West 1.6 km/h 6.4 km/h 77 % 0 mm
06:46 19.3 °C 15.2 °C 1012.8 hPa West 1.6 km/h 6.4 km/h 77 % 0 mm
06:51 19.4 °C 15.5 °C 1012.8 hPa WNW 1.6 km/h 6.4 km/h 78 % 0 mm
06:56 19.6 °C 15.6 °C 1012.8 hPa West 2.7 km/h 9.7 km/h 78 % 0 mm
07:01 19.8 °C 15.4 °C 1012.8 hPa WNW 1.3 km/h 4.8 km/h 76 % 0 mm
07:06 19.9 °C 15.6 °C 1013.1 hPa West 1.6 km/h 6.4 km/h 76 % 0 mm
07:11 20.2 °C 15.6 °C 1013.1 hPa Calm   6.4 km/h 75 % 0 mm
07:16 20.4 °C 15.4 °C 1013.1 hPa WNW 3.2 km/h 11.3 km/h 73 % 0 mm
07:21 20.6 °C 15.2 °C 1013.1 hPa WNW 3.2 km/h 9.7 km/h 71 % 0 mm
07:26 20.8 °C 15.1 °C 1013.1 hPa WNW 4.8 km/h 11.3 km/h 70 % 0 mm
07:31 20.9 °C 15.3 °C 1013.1 hPa WNW 1.6 km/h 12.9 km/h 70 % 0 mm
07:36 21.1 °C 15.2 °C 1013.4 hPa WNW 3.2 km/h 8 km/h 69 % 0 mm
07:41 21.2 °C 15.3 °C 1013.4 hPa WNW 1.6 km/h 8 km/h 69 % 0 mm
07:46 21.3 °C 15.3 °C 1013.4 hPa WNW 3.2 km/h 9.7 km/h 69 % 0 mm
07:51 21.3 °C 14.9 °C 1013.4 hPa WNW 4.8 km/h 14.5 km/h 67 % 0 mm
07:56 21.3 °C 14.9 °C 1013.4 hPa WNW 4.8 km/h 12.9 km/h 67 % 0 mm
08:01 21.2 °C 14.6 °C 1013.4 hPa WNW 2.3 km/h 9.3 km/h 66 % 0 mm
08:06 21.2 °C 14.6 °C 1013.8 hPa WNW 2.9 km/h 11.1 km/h 66 % 0 mm
08:11 21.2 °C 14.8 °C 1013.8 hPa WNW 4.8 km/h 11.1 km/h 67 % 0 mm
08:16 21.2 °C 14.8 °C 1013.8 hPa WNW 5 km/h 9.3 km/h 67 % 0 mm
08:21 21.2 °C 15.1 °C 1013.8 hPa West 2.9 km/h 9.3 km/h 68 % 0 mm
08:26 21.2 °C 14.8 °C 1013.8 hPa West 2.4 km/h 9.3 km/h 67 % 0 mm
08:31 21.3 °C 14.9 °C 1014.1 hPa SW 1.4 km/h 7.4 km/h 67 % 0 mm
08:36 21.3 °C 14.4 °C 1014.1 hPa West 1.9 km/h 9.3 km/h 65 % 0 mm
08:41 21.3 °C 14.9 °C 1014.1 hPa WSW 1.1 km/h 3.7 km/h 67 % 0 mm
08:46 21.4 °C 14.8 °C 1014.1 hPa WNW 3.7 km/h 7.4 km/h 66 % 0 mm
08:51 21.4 °C 15.1 °C 1014.1 hPa SSW 3.2 km/h 9.7 km/h 67 % 0 mm
08:56 21.5 °C 14.9 °C 1014.1 hPa WNW 3.2 km/h 5.6 km/h 66 % 0 mm
09:01 21.6 °C 14.9 °C 1014.1 hPa SW 1.4 km/h 6.4 km/h 66 % 0 mm
09:06 21.6 °C 14.5 °C 1014.1 hPa WNW 4 km/h 5.6 km/h 64 % 0 mm
09:11 21.7 °C 14.8 °C 1014.1 hPa SW 3.2 km/h 5.6 km/h 65 % 0 mm
09:16 21.7 °C 15.1 °C 1014.1 hPa WNW 1.8 km/h 5.6 km/h 66 % 0 mm
09:21 21.8 °C 15.8 °C 1014.1 hPa WNW 1.4 km/h 5.6 km/h 69 % 0 mm
09:26 21.8 °C 15.4 °C 1014.1 hPa NW 0.8 km/h 5.6 km/h 67 % 0 mm
09:31 21.9 °C 15.5 °C 1014.1 hPa SW 2.6 km/h 6.4 km/h 67 % 0 mm
09:36 22 °C 15.6 °C 1014.1 hPa SW 2.1 km/h 3.7 km/h 67 % 0 mm
09:41 22.1 °C 15.7 °C 1014.1 hPa West 2.1 km/h 5.6 km/h 67 % 0 mm
09:46 22.3 °C 15.8 °C 1014.4 hPa Calm   1.9 km/h 67 % 0 mm
09:51 22.5 °C 15.8 °C 1014.4 hPa WSW 5.1 km/h 8 km/h 66 % 0 mm
09:56 22.8 °C 15.9 °C 1014.4 hPa West 3.9 km/h 9.3 km/h 65 % 0 mm
10:01 23.3 °C 15.6 °C 1014.4 hPa West 3.1 km/h 9.3 km/h 62 % 0 mm
10:06 23.8 °C 16.8 °C 1014.8 hPa WNW 2.3 km/h 5.6 km/h 65 % 0 mm
10:12 24.3 °C 17.1 °C 1014.4 hPa NNW 1.4 km/h 5.6 km/h 64 % 0 mm
10:17 24.8 °C 16.6 °C 1014.8 hPa West 1.8 km/h 5.6 km/h 60 % 0 mm
10:22 25.4 °C 16.5 °C 1014.8 hPa WNW 5.1 km/h 9.3 km/h 58 % 0 mm
10:27 25.7 °C 16.3 °C 1014.8 hPa West 3.4 km/h 9.3 km/h 56 % 0 mm
10:32 26.1 °C 16.4 °C 1014.4 hPa West 4.8 km/h 9.3 km/h 55 % 0 mm
10:37 26.6 °C 17.1 °C 1014.8 hPa WNW 1 km/h 5.6 km/h 56 % 0 mm
10:42 26.9 °C 16.6 °C 1014.8 hPa WNW 1.3 km/h 6.4 km/h 53 % 0 mm
10:47 27.2 °C 15.9 °C 1014.8 hPa WNW 4 km/h 7.4 km/h 50 % 0 mm
10:52 27.6 °C 16.2 °C 1014.8 hPa NW 2.9 km/h 5.6 km/h 50 % 0 mm
10:57 27.8 °C 17.1 °C 1014.8 hPa WNW 2.9 km/h 7.4 km/h 52 % 0 mm
10:58 27.9 °C 17.1 °C 1014.8 hPa NNW 3.1 km/h 7.4 km/h 52 % 0 mm
11:03 28.2 °C 18.3 °C 1014.8 hPa WNW 4.2 km/h 11.3 km/h 55 % 0 mm
11:08 28.3 °C 17.2 °C 1014.8 hPa West 1.8 km/h 5.6 km/h 51 % 0 mm
11:13 28.4 °C 17.3 °C 1014.8 hPa NW 1.3 km/h 3.7 km/h 51 % 0 mm
11:18 28.6 °C 16.8 °C 1015.1 hPa NNE 3.4 km/h 6.4 km/h 49 % 0 mm
11:23 28.8 °C 17 °C 1015.1 hPa North 2.3 km/h 5.6 km/h 49 % 0 mm
11:28 28.9 °C 17.4 °C 1015.1 hPa North 3.5 km/h 6.4 km/h 50 % 0 mm
11:33 29.1 °C 16.6 °C 1015.1 hPa North 4 km/h 7.4 km/h 47 % 0 mm
11:38 29.2 °C 16.3 °C 1015.1 hPa NW 1.9 km/h 9.3 km/h 46 % 0 mm
11:43 29.3 °C 17.2 °C 1015.1 hPa WNW 6.3 km/h 7.4 km/h 48 % 0 mm
11:48 29.4 °C 16.6 °C 1015.1 hPa SW 4 km/h 9.3 km/h 46 % 0 mm
11:53 29.4 °C 15.1 °C 1015.1 hPa WSW 6 km/h 13 km/h 42 % 0 mm
11:58 29.5 °C 18 °C 1015.1 hPa NNE 3.2 km/h 5.6 km/h 50 % 0 mm
12:03 29.7 °C 17.5 °C 1015.1 hPa SW 3.2 km/h 9.7 km/h 48 % 0 mm
12:08 29.7 °C 16.8 °C 1015.1 hPa West 1.4 km/h 5.6 km/h 46 % 0 mm
12:13 29.8 °C 17.3 °C 1015.1 hPa WNW 1.8 km/h 8 km/h 47 % 0 mm
12:16 29.8 °C 16.9 °C 1015.1 hPa WNW 3.2 km/h 9.7 km/h 46 % 0 mm
12:21 29.9 °C 16.3 °C 1015.1 hPa WNW 3.2 km/h 9.7 km/h 44 % 0 mm
12:26 30.1 °C 15.8 °C 1015.1 hPa West 3.2 km/h 11.3 km/h 42 % 0 mm
12:31 30.1 °C 15.8 °C 1015.1 hPa West 4.8 km/h 12.9 km/h 42 % 0 mm
12:36 30.2 °C 16.6 °C 1015.1 hPa WNW 2.4 km/h 7.4 km/h 44 % 0 mm
12:41 30.2 °C 14.7 °C 1015.1 hPa WSW 6 km/h 14.8 km/h 39 % 0 mm
12:46 30.2 °C 16.2 °C 1015.1 hPa West 3.2 km/h 14.5 km/h 43 % 0 mm
12:51 30.1 °C 14.6 °C 1015.1 hPa WSW 4.8 km/h 19.3 km/h 39 % 0 mm
12:56 30.1 °C 14.6 °C 1014.8 hPa WSW 4.8 km/h 14.5 km/h 39 % 0 mm
13:01 30.1 °C 13.8 °C 1015.1 hPa West 2.4 km/h 9.3 km/h 37 % 0 mm
13:06 30.1 °C 16.4 °C 1014.8 hPa SSW 7.1 km/h 9.3 km/h 44 % 0 mm
13:11 30.1 °C 15 °C 1015.1 hPa West 5.5 km/h 14.8 km/h 40 % 0 mm
13:16 30.1 °C 14.2 °C 1015.1 hPa NW 2.3 km/h 8 km/h 38 % 0 mm
13:22 30.2 °C 16.9 °C 1014.8 hPa WNW 2.3 km/h 4.8 km/h 45 % 0 mm
13:27 30.2 °C 16.6 °C 1014.8 hPa NW 1.6 km/h 9.3 km/h 44 % 0 mm
13:32 30.3 °C 15.2 °C 1014.8 hPa North 5.8 km/h 8 km/h 40 % 0 mm
13:37 30.4 °C 16.8 °C 1014.8 hPa West 3.5 km/h 3.5 km/h 44 % 0 mm
13:42 30.6 °C 16.9 °C 1014.8 hPa WNW 1.4 km/h 5.6 km/h 44 % 0 mm
13:47 30.6 °C 15.4 °C 1014.8 hPa North 3.4 km/h 5.6 km/h 40 % 0 mm
13:52 30.7 °C 16.3 °C 1014.8 hPa NW 1.3 km/h 3.7 km/h 42 % 0 mm
13:57 30.7 °C 16.3 °C 1014.8 hPa West 3.2 km/h 6.4 km/h 42 % 0 mm
14:02 30.8 °C 15.2 °C 1014.8 hPa West 2.1 km/h 7.4 km/h 39 % 0 mm
14:07 30.8 °C 14.8 °C 1014.8 hPa WSW 3.7 km/h 5.6 km/h 38 % 0 mm
14:12 30.8 °C 16.8 °C 1014.8 hPa SW 4 km/h 9.3 km/h 43 % 0 mm
14:17 30.9 °C 16.2 °C 1014.8 hPa WSW 4.3 km/h 9.3 km/h 41 % 0 mm
14:22 30.9 °C 14.6 °C 1014.8 hPa WSW 2.7 km/h 5.6 km/h 37 % 0 mm
14:27 30.9 °C 14.9 °C 1014.8 hPa WSW 7.9 km/h 12.9 km/h 38 % 0 mm
14:32 30.9 °C 14.9 °C 1014.8 hPa SW 5.5 km/h 9.3 km/h 38 % 0 mm
14:37 30.9 °C 14.1 °C 1014.8 hPa SW 2.6 km/h 6.4 km/h 36 % 0 mm
14:42 31 °C 15.4 °C 1014.8 hPa West 4.2 km/h 6.4 km/h 39 % 0 mm
14:47 30.9 °C 13.7 °C 1014.8 hPa SW 2.7 km/h 7.4 km/h 35 % 0 mm
14:52 30.9 °C 14.1 °C 1014.8 hPa NW 2.6 km/h 5.6 km/h 36 % 0 mm
14:57 30.8 °C 14.1 °C 1014.8 hPa West 5.8 km/h 9.7 km/h 36 % 0 mm
15:02 30.8 °C 14.1 °C 1014.8 hPa WSW 2.3 km/h 9.3 km/h 36 % 0 mm
15:07 30.8 °C 16 °C 1014.8 hPa WNW 2.9 km/h 9.7 km/h 41 % 0 mm
15:12 30.8 °C 15.7 °C 1014.8 hPa WNW 5 km/h 9.3 km/h 40 % 0 mm
15:17 30.9 °C 14.9 °C 1014.8 hPa NW 5.3 km/h 9.3 km/h 38 % 0 mm
15:22 30.9 °C 14.5 °C 1014.8 hPa WNW 1.3 km/h 5.6 km/h 37 % 0 mm
15:27 30.9 °C 13.3 °C 1014.8 hPa WSW 2.6 km/h 9.3 km/h 34 % 0 mm
15:32 30.8 °C 15.7 °C 1014.4 hPa WNW 2.1 km/h 6.4 km/h 40 % 0 mm
15:37 30.7 °C 14.3 °C 1014.8 hPa WNW 5.5 km/h 13 km/h 37 % 0 mm
15:43 30.7 °C 14.8 °C 1014.8 hPa NNE 1.6 km/h 11.1 km/h 38 % 0 mm
15:48 30.7 °C 13.9 °C 1014.8 hPa West 7.9 km/h 13 km/h 36 % 0 mm
15:53 30.8 °C 14.4 °C 1014.4 hPa WNW 5.3 km/h 13 km/h 37 % 0 mm
15:58 30.8 °C 16.4 °C 1014.8 hPa NNE 1 km/h 3.2 km/h 42 % 0 mm
16:03 30.7 °C 14.8 °C 1014.8 hPa West 7.1 km/h 14.8 km/h 38 % 0 mm
16:08 30.8 °C 15.7 °C 1014.4 hPa West 5.8 km/h 13 km/h 40 % 0 mm
16:13 30.9 °C 14.9 °C 1014.8 hPa WNW 6 km/h 13 km/h 38 % 0 mm
16:18 30.9 °C 14.5 °C 1014.4 hPa West 6 km/h 9.3 km/h 37 % 0 mm
16:19 30.9 °C 14.9 °C 1014.4 hPa West 1.6 km/h 5.6 km/h 38 % 0 mm
16:24 30.8 °C 15.2 °C 1014.4 hPa WNW 2.7 km/h 5.6 km/h 39 % 0 mm
16:29 30.8 °C 14.4 °C 1014.4 hPa North 4 km/h 8 km/h 37 % 0 mm
16:34 30.8 °C 16.4 °C 1014.4 hPa Calm   5.6 km/h 42 % 0 mm
16:39 30.8 °C 15.6 °C 1014.4 hPa North 0.5 km/h 5.6 km/h 40 % 0 mm
16:44 30.8 °C 15.3 °C 1014.4 hPa WNW 3.7 km/h 7.4 km/h 39 % 0 mm
16:49 30.9 °C 15.7 °C 1014.4 hPa NW 1.4 km/h 3.7 km/h 40 % 0 mm
16:54 30.8 °C 15.6 °C 1014.4 hPa NNW 3.7 km/h 5.6 km/h 40 % 0 mm
17:00 30.7 °C 15.1 °C 1014.4 hPa North 2.3 km/h 6.4 km/h 39 % 0 mm
17:05 30.4 °C 14.9 °C 1014.1 hPa WNW 6.8 km/h 11.1 km/h 39 % 0 mm
17:10 30.3 °C 14.8 °C 1014.1 hPa NNW 1.3 km/h 5.6 km/h 39 % 0 mm
17:15 30.2 °C 15.9 °C 1014.1 hPa NW 0.6 km/h 5.6 km/h 42 % 0 mm
17:25 30.2 °C 14.7 °C 1014.1 hPa NNW 2.3 km/h 7.4 km/h 39 % 0 mm
17:30 29.9 °C 14.1 °C 1014.1 hPa NW 4 km/h 11.1 km/h 38 % 0 mm
17:35 29.6 °C 14.6 °C 1014.1 hPa NW 2.4 km/h 9.3 km/h 40 % 0 mm
17:40 29.3 °C 14.3 °C 1014.1 hPa WNW 0.6 km/h 5.6 km/h 40 % 0 mm
17:45 29.2 °C 14.6 °C 1014.1 hPa West 0.2 km/h 3.7 km/h 41 % 0 mm
17:50 29 °C 14.8 °C 1013.8 hPa WNW 0.5 km/h 4.8 km/h 42 % 0 mm
17:55 28.8 °C 14.6 °C 1014.1 hPa Calm   1.9 km/h 42 % 0 mm
18:00 28.7 °C 14.5 °C 1014.1 hPa WNW 3.2 km/h 5.6 km/h 42 % 0 mm
18:05 28.4 °C 13.6 °C 1014.1 hPa West 2.6 km/h 5.6 km/h 40 % 0 mm
18:10 28.3 °C 13.8 °C 1014.1 hPa NNW 2.4 km/h 9.3 km/h 41 % 0 mm
18:15 28.2 °C 14.1 °C 1013.8 hPa NNE 0.2 km/h 1.9 km/h 42 % 0 mm
18:20 28 °C 13.9 °C 1014.1 hPa WNW 0.3 km/h 1.9 km/h 42 % 0 mm
18:25 27.9 °C 14.6 °C 1014.1 hPa WNW 0.2 km/h 1.9 km/h 44 % 0 mm
18:30 27.9 °C 14.2 °C 1013.8 hPa Calm     43 % 0 mm
18:35 27.8 °C 14.1 °C 1014.1 hPa SW 3.2 km/h 4.8 km/h 43 % 0 mm
18:40 27.8 °C 14.1 °C 1014.1 hPa Calm   1.9 km/h 43 % 0 mm
18:45 27.7 °C 14 °C 1014.4 hPa SW 1 km/h 5.6 km/h 43 % 0 mm
18:50 27.6 °C 14.3 °C 1014.1 hPa SW 0.3 km/h 1.9 km/h 44 % 0 mm
18:55 27.5 °C 14.2 °C 1014.1 hPa Calm   1.9 km/h 44 % 0 mm
19:00 27.4 °C 13.7 °C 1014.4 hPa SW 0.6 km/h 3.2 km/h 43 % 0 mm
19:05 27.3 °C 13.9 °C 1014.1 hPa SW 0.8 km/h 1.9 km/h 44 % 0 mm
19:10 27.2 °C 14.9 °C 1014.4 hPa Calm   1.6 km/h 47 % 0 mm
19:15 27.1 °C 15.2 °C 1014.4 hPa SW 3.1 km/h 5.6 km/h 48 % 0 mm
19:21 27.1 °C 15.1 °C 1014.4 hPa WSW 1.1 km/h 5.6 km/h 48 % 0 mm
19:26 27 °C 15.7 °C 1014.4 hPa SW 3.2 km/h 8 km/h 50 % 0 mm
19:31 26.9 °C 15.9 °C 1014.4 hPa SSW 1.6 km/h 4.8 km/h 51 % 0 mm
19:36 26.8 °C 16.4 °C 1014.4 hPa WSW 1.6 km/h 4.8 km/h 53 % 0 mm
19:41 26.6 °C 16.6 °C 1014.8 hPa Calm     54 % 0 mm
19:46 26.4 °C 16.4 °C 1014.8 hPa West 1.1 km/h 3.7 km/h 54 % 0 mm
19:51 26.2 °C 16.2 °C 1014.8 hPa SSW 2.4 km/h 5.6 km/h 54 % 0 mm
19:56 26.1 °C 16.6 °C 1014.8 hPa SSW 0.3 km/h 1.9 km/h 56 % 0 mm
20:01 25.8 °C 16.3 °C 1014.8 hPa SSW 1.6 km/h 5.6 km/h 56 % 0 mm
20:06 25.5 °C 16.3 °C 1014.8 hPa WSW 0.2 km/h 1.9 km/h 57 % 0 mm
20:11 25.3 °C 16.4 °C 1014.8 hPa SW 0.8 km/h 3.7 km/h 58 % 0 mm
20:16 25.1 °C 16.2 °C 1014.8 hPa SW 0.6 km/h 3.7 km/h 58 % 0 mm
20:21 24.8 °C 16 °C 1014.8 hPa SW 0.3 km/h 1.9 km/h 58 % 0 mm
20:26 24.6 °C 16.1 °C 1014.8 hPa SW 0.8 km/h 1.9 km/h 59 % 0 mm
20:32 24.4 °C 16.1 °C 1014.8 hPa SW 0.6 km/h 5.6 km/h 60 % 0 mm
20:37 24.2 °C 15.9 °C 1014.8 hPa SSW 1 km/h 5.6 km/h 60 % 0 mm
20:42 24 °C 16 °C 1014.8 hPa SSW 0.8 km/h 3.7 km/h 61 % 0 mm
20:47 23.8 °C 16.1 °C 1015.1 hPa SSW 0.8 km/h 1.9 km/h 62 % 0 mm
20:52 23.7 °C 15.9 °C 1015.1 hPa South 0.6 km/h 3.7 km/h 62 % 0 mm
20:57 23.6 °C 16.1 °C 1015.1 hPa SW 0.2 km/h 1.9 km/h 63 % 0 mm
21:02 23.4 °C 16.2 °C 1015.1 hPa SW 1 km/h 3.7 km/h 64 % 0 mm
21:07 23.3 °C 16.3 °C 1015.1 hPa South 1.3 km/h 5.6 km/h 65 % 0 mm
21:12 23.1 °C 16.4 °C 1015.1 hPa South 0.8 km/h 1.9 km/h 66 % 0 mm
21:17 23 °C 16.6 °C 1015.1 hPa Calm   1.9 km/h 67 % 0 mm
21:22 22.9 °C 16.7 °C 1015.5 hPa SSW 0.3 km/h 1.9 km/h 68 % 0 mm
21:27 22.8 °C 16.6 °C 1015.5 hPa SSW 0.3 km/h 1.9 km/h 68 % 0 mm
21:32 22.7 °C 16.5 °C 1015.5 hPa SSW 0.5 km/h 1.9 km/h 68 % 0 mm
21:37 22.6 °C 16.6 °C 1015.5 hPa Calm   1.6 km/h 69 % 0 mm
21:42 22.5 °C 16.8 °C 1015.5 hPa Calm   1.9 km/h 70 % 0 mm
21:47 22.4 °C 16.7 °C 1015.5 hPa Calm     70 % 0 mm
21:52 22.3 °C 16.8 °C 1015.8 hPa SW 0.2 km/h 3.7 km/h 71 % 0 mm
21:57 22.2 °C 16.9 °C 1015.5 hPa SW 0.8 km/h 3.7 km/h 72 % 0 mm
22:02 22.1 °C 16.8 °C 1015.5 hPa Calm     72 % 0 mm
22:07 21.9 °C 16.9 °C 1015.5 hPa Calm     73 % 0 mm
22:12 21.8 °C 16.8 °C 1015.5 hPa Calm   1.6 km/h 73 % 0 mm
22:18 21.8 °C 16.7 °C 1015.5 hPa Calm     73 % 0 mm
22:23 21.7 °C 16.8 °C 1015.5 hPa SW 0.5 km/h 3.7 km/h 74 % 0 mm
22:28 21.6 °C 16.7 °C 1015.5 hPa Calm   1.6 km/h 74 % 0 mm
22:33 21.5 °C 16.9 °C 1015.5 hPa Calm     75 % 0 mm
22:38 21.4 °C 16.8 °C 1015.8 hPa SW 0.3 km/h 1.9 km/h 75 % 0 mm
22:43 21.3 °C 16.9 °C 1015.8 hPa South 1.4 km/h 3.2 km/h 76 % 0 mm
22:48 21.3 °C 17.1 °C 1015.8 hPa ESE 0.5 km/h 1.9 km/h 77 % 0 mm
22:53 21.3 °C 17.1 °C 1015.8 hPa ESE 0.5 km/h 3.7 km/h 77 % 0 mm
22:58 21.2 °C 17.2 °C 1015.8 hPa Calm   1.6 km/h 78 % 0 mm
23:03 21.2 °C 17.2 °C 1015.8 hPa Calm   3.7 km/h 78 % 0 mm
23:08 21.2 °C 17.4 °C 1015.8 hPa ESE 0.3 km/h 1.9 km/h 79 % 0 mm
23:13 21.2 °C 17.4 °C 1015.8 hPa ESE 0.6 km/h 3.7 km/h 79 % 0 mm
23:18 21.1 °C 17.5 °C 1015.8 hPa South 1.1 km/h 3.7 km/h 80 % 0 mm
23:23 21.1 °C 17.7 °C 1015.8 hPa South 0.3 km/h 1.9 km/h 81 % 0 mm
23:28 21.1 °C 17.7 °C 1015.8 hPa SSE 0.5 km/h 1.9 km/h 81 % 0 mm
23:33 21.1 °C 17.9 °C 1015.8 hPa Calm   1.9 km/h 82 % 0 mm
23:38 21.1 °C 18.1 °C 1016.1 hPa Calm     83 % 0 mm
23:43 21.1 °C 17.9 °C 1016.1 hPa SSE 0.5 km/h 1.9 km/h 82 % 0 mm
23:44 21.1 °C 17.9 °C 1016.1 hPa SSE 0.2 km/h 1.9 km/h 82 % 0 mm
23:49 21.1 °C 18.1 °C 1016.1 hPa SSE 0.2 km/h 1.9 km/h 83 % 0 mm
23:54 21.1 °C 18.1 °C 1016.1 hPa SSE 0.3 km/h 1.9 km/h 83 % 0 mm
23:59 21.1 °C 18.1 °C 1016.1 hPa Calm   5.6 km/h 83 % 0 mm
Crab Meadow Weather
Compliments of Weather Underground - 3 mb

Script developed by  Jim McMurry - jmcmurry@mwt.net Adapted for the template by  Wim van der Kuil - Leuven-Template.eu

Weather Terms: Heavy Sleet Warning - Accumulations of 1/2 inch or more of sleet.